Location: Chipmunk Meadow
(41.1540°N, 122.8814°W)
Time: 14:04:40
(UTC+00:00)

RESURS DK-1 - Pass Details

Date: 13 April 2024
Orbit: 543 x 547 km, 69.9° (Epoch: 21 May)

Event Time Altitude Azimuth Distance (km) Brightness Sun altitude
Exits shadow 12:18:23 15° 288° (WNW) 1,502 4.1 -14.3°
Maximum altitude 12:19:28 17° 308° (NW) 1,433 4.2 -14.1°
Drops below altitude 10° 12:22:07 10° 349° (N) 1,816 5.1 -13.6°
Sets 12:24:59 0° 10° (N) 2,713 6.4 -13.2°
